496P/Hill (2010)

Japanese version
Home page
Updated on November 26, 2024

---------------------------------------------------------------------

* Profile

Designation 496P/2010 A3
Discovery Date January 8, 2010
Magnitude 17.3 mag
Discoverer R. E. Hill (Catalina)

* Pictures

* Orbital Elements

                    Epoch = 2010 Mar. 25.0 TT
     T = 2010 Apr.  3.68211 TT        Peri. =  41.28293
     e = 0.7322146                    Node  =  64.82894 2000.0
     q = 1.6218162 AU                 Incl. =  15.02815
       a =  6.0564035 AU   n = 0.06612746   P =  14.90 years

* Finding Charts

* Magnitudes Graph

        m1 = 10.5 + 5 log d + 15.0 log r(t - 50)

---------------------------------------------------------------------

The orbital elements are printed on CBET 5466.
The charts are made with StellaNavigator Ver.8 (AstroArts).
The magnitudes graphs are made with Comet for Windows.

---------------------------------------------------------------------

Copyright(C) Seiichi Yoshida (comet@aerith.net). All rights reserved.